ECMWFNIL_sfc_thetae_024.txt.gz
Theta_e
274 273 273 273 273 274 273 273 272 272 272 272 272 272 272 273 274 273 273 273 273 273 273 273 273 273 273 273 273 273 272 272 273 273 273 274 274 274 274 275 277 279
273 274 275 274 273 273 273 272 272 272 272 272 272 272 272 273 273 273 273 273 273 273 273 273 272 272 272 272 272 271 271 271 271 273 272 272 272 273 273 274 276 277
272 272 272 272 271 271 272 272 272 272 272 272 272 272 272 273 273 273 273 273 272 272 272 272 272 272 272 272 272 271 271 271 270 271 272 271 272 272 273 274 276 277
272 272 272 271 271 271 271 271 271 271 271 271 271 272 272 273 273 272 272 273 272 271 272 272 271 272 271 271 271 271 271 271 271 271 271 271 272 272 272 274 275 278
271 271 271 271 271 271 271 270 270 270 271 271 271 272 272 272 271 271 271 271 271 271 271 271 271 271 271 271 271 270 270 270 271 271 270 270 271 272 272 273 274 276
271 271 271 271 271 270 270 270 270 270 270 270 271 271 271 271 271 271 271 270 271 271 271 271 271 271 271 270 270 270 270 270 270 270 270 270 271 272 274 275 276 277
270 270 270 270 270 270 269 269 270 271 270 271 271 270 271 270 270 270 270 271 270 270 270 270 270 270 270 270 270 269 270 270 270 270 270 270 271 271 273 274 275 277
269 269 269 269 269 269 269 269 269 270 270 270 270 270 270 270 270 270 270 270 269 269 269 269 270 270 270 270 269 269 269 270 270 270 270 270 270 269 270 271 272 273
269 268 269 268 268 268 269 269 269 269 270 269 269 269 270 270 269 269 269 269 268 268 269 268 269 269 269 269 269 269 269 269 270 270 270 270 269 270 270 271 272 273
268 268 268 268 268 268 268 268 269 269 269 269 269 269 268 268 268 268 268 268 267 267 267 268 268 268 268 268 269 269 269 269 269 270 270 271 271 270 270 271 272 273
267 267 267 267 267 268 268 268 268 268 268 268 267 267 267 267 267 267 267 267 266 266 266 267 267 267 267 267 268 269 269 269 269 269 269 270 271 272 273 273 274 275
266 266 267 267 267 267 267 267 268 267 267 267 266 266 266 266 266 266 266 266 266 266 266 266 266 267 267 267 267 268 269 269 269 269 269 270 270 270 270 271 271 271
266 266 266 266 266 267 267 267 266 266 265 265 265 265 265 264 265 265 265 266 265 266 266 266 266 266 266 267 267 268 268 268 269 269 269 270 270 271 271 271 271 272
266 266 266 266 266 266 266 265 265 265 265 264 264 264 264 264 264 264 265 265 265 265 266 266 266 266 266 267 267 268 268 268 269 269 269 269 270 270 270 271 272 272
266 266 266 266 266 265 264 264 264 264 264 263 263 263 264 264 264 264 264 265 265 265 266 266 266 266 267 267 267 268 268 268 269 269 269 269 270 270 270 271 272 273
265 265 265 264 264 263 263 263 263 262 262 262 262 263 263 264 264 264 265 265 265 265 266 266 266 267 269 272 274 271 270 270 270 270 270 270 270 270 271 271 272 273
264 264 263 262 262 262 261 261 261 261 261 261 262 262 263 263 264 264 265 266 265 265 265 266 267 267 272 274 275 276 274 272 272 272 272 272 272 272 272 273 273 274
262 262 261 261 261 260 260 260 260 260 260 261 261 262 263 264 264 265 265 265 265 265 265 266 267 271 274 275 276 277 277 274 273 273 273 273 273 272 272 273 273 274
261 260 259 259 259 259 259 259 259 260 260 261 261 263 264 264 264 264 264 264 264 264 264 265 266 271 273 275 276 277 277 277 274 274 274 274 274 273 273 273 273 273
260 258 258 258 259 259 259 259 259 259 260 262 263 263 263 263 263 263 263 263 264 264 264 264 265 269 273 275 276 277 278 278 275 275 275 274 274 274 274 273 273 273
258 258 257 258 258 258 258 258 259 260 261 262 262 263 262 262 262 262 262 262 263 263 263 264 265 271 274 275 276 277 278 278 275 276 276 275 275 274 274 274 274 274
257 257 257 257 257 257 257 258 259 260 260 262 262 262 262 262 262 262 261 261 262 263 263 264 265 272 273 275 276 277 279 276 276 276 275 275 275 275 275 275 275 274
257 256 256 256 257 257 257 258 259 259 260 261 261 261 261 261 260 261 261 262 262 263 263 264 265 269 273 275 276 277 277 275 276 275 275 274 274 275 275 275 275 275
256 256 255 256 256 256 257 258 259 260 260 261 260 260 260 260 260 261 261 262 262 263 264 264 266 269 274 275 276 277 277 274 274 275 274 274 274 274 274 274 275 277
256 255 255 255 255 256 257 257 258 259 259 260 260 260 260 260 261 261 261 262 263 264 268 267 266 268 273 274 276 277 275 274 274 274 274 274 274 273 274 274 274 276
255 254 255 255 255 256 257 258 259 259 259 259 259 259 259 260 261 261 262 263 264 265 265 266 266 267 270 275 276 276 277 274 274 274 273 274 274 273 273 274 274 274

ECMWFNIL_sfc_thetae_030.txt.gz
Theta_e
283 283 282 281 281 281 281 280 280 280 280 279 279 279 279 280 280 279 279 279 280 279 279 279 279 279 279 279 279 279 278 278 278 278 278 278 278 278 277 277 278 277
282 281 281 281 281 281 280 280 279 279 278 279 279 279 279 279 279 279 279 279 279 279 279 279 279 278 278 278 278 278 277 277 277 278 277 277 277 277 277 277 277 277
281 280 280 280 280 279 279 279 279 278 278 278 279 278 278 279 278 278 278 278 278 278 278 278 278 278 278 278 277 277 277 277 276 277 277 277 277 277 277 277 277 277
280 280 279 279 279 278 278 278 278 278 278 278 278 278 278 278 278 278 278 277 277 277 277 277 277 277 277 277 277 276 276 276 276 277 276 276 277 277 276 277 277 277
280 279 279 278 278 278 278 277 277 277 277 277 278 278 277 278 277 277 277 277 276 276 276 276 276 276 276 276 276 275 275 275 275 276 275 275 276 276 276 276 276 276
279 278 278 278 277 277 277 277 277 277 277 276 277 277 277 277 276 276 276 275 275 275 275 275 275 275 275 275 274 274 274 274 274 274 274 274 274 275 275 275 275 274
278 277 277 277 276 276 276 276 276 276 276 277 276 276 276 276 275 275 275 274 274 274 274 274 273 273 274 274 273 273 273 273 273 273 273 273 273 273 274 275 274 273
277 277 276 276 275 275 275 275 276 276 276 275 275 275 275 275 274 274 274 273 273 273 273 273 273 273 273 273 272 272 272 272 272 272 272 272 272 272 275 274 273 272
276 275 275 275 274 275 275 275 275 275 275 274 274 274 275 274 273 273 273 272 272 272 272 272 272 272 272 272 271 271 271 271 272 271 271 271 271 274 273 273 272 272
275 274 274 274 274 274 274 274 274 274 274 274 274 274 273 273 273 272 272 271 271 271 271 271 271 271 271 272 271 271 271 271 271 271 271 271 271 272 271 271 271 271
274 274 273 273 273 274 273 273 273 274 274 273 273 272 272 272 272 272 271 271 270 270 270 270 271 271 271 271 271 271 271 271 271 271 271 272 271 271 271 270 270 271
273 273 273 273 273 273 273 273 273 273 273 272 272 271 271 271 270 270 270 270 270 270 270 270 271 271 271 271 271 271 271 271 271 271 272 271 270 270 270 270 270 271
273 273 273 273 273 273 273 273 272 272 271 271 271 270 269 269 269 269 269 270 270 270 270 270 270 271 271 271 271 271 271 271 270 271 270 270 270 270 270 271 271 271
273 273 273 272 272 272 272 271 271 271 270 270 269 269 268 268 268 268 269 269 269 270 270 271 271 271 271 271 271 270 270 271 270 270 270 271 271 271 272 271 271 271
273 272 272 272 271 271 270 270 270 269 269 268 268 268 268 268 268 268 268 269 269 270 270 270 270 270 270 270 270 270 271 271 271 271 271 271 271 271 272 272 273 273
272 271 271 271 270 270 269 269 268 268 267 267 267 267 267 268 267 268 268 269 269 270 270 269 269 270 270 272 273 272 272 272 272 271 271 271 271 271 272 273 273 274
271 270 270 269 269 268 268 267 266 266 266 266 266 266 266 267 267 268 268 269 269 269 268 269 269 269 271 274 275 276 273 272 272 272 273 273 273 273 273 274 274 275
270 269 268 268 267 266 266 265 265 264 264 265 265 265 266 267 267 268 268 268 268 268 268 268 268 270 273 274 275 275 276 273 273 273 273 274 274 274 274 274 274 275
269 268 267 266 266 265 264 264 263 263 263 263 264 265 266 266 267 267 267 267 267 267 267 268 268 270 272 274 275 276 276 276 274 274 273 273 274 274 274 273 274 274
267 266 265 265 264 263 263 263 263 263 263 264 264 265 265 265 266 266 266 266 266 266 266 267 267 269 272 274 275 276 277 277 274 274 273 273 273 273 273 273 273 273
266 265 264 264 263 263 262 262 262 263 263 264 264 265 265 264 265 265 265 265 265 265 265 266 267 271 273 274 275 276 277 277 274 273 273 273 273 273 273 273 273 273
264 264 263 263 263 262 262 262 262 262 262 263 264 264 265 265 265 265 264 264 265 265 265 265 267 271 273 274 275 276 277 274 273 273 272 272 272 273 273 273 274 273
264 263 262 261 262 261 261 261 262 262 263 264 263 263 264 263 263 264 264 264 264 264 264 265 266 269 273 274 275 276 275 273 273 272 272 272 272 273 273 273 274 274
263 262 261 261 261 261 261 261 262 262 263 263 262 262 262 263 263 263 264 264 264 264 265 265 266 270 273 274 275 276 275 272 272 272 271 272 272 273 273 274 274 276
262 261 261 261 260 261 261 260 261 261 262 262 262 262 262 263 263 263 263 264 264 265 267 267 267 269 272 274 275 276 274 272 272 272 271 271 272 272 273 273 273 275
261 260 260 259 260 260 260 260 261 261 262 261 261 262 262 263 263 263 262 263 265 266 267 267 268 269 270 274 275 275 276 273 273 271 271 271 272 272 272 272 273 273

ECMWFNIL_sfc_thetae_033.txt.gz
Theta_e
288 288 287 287 286 286 286 285 285 284 284 284 283 283 283 283 283 283 282 282 282 281 281 281 282 281 282 281 281 281 280 280 280 280 280 280 279 279 279 279 279 279
287 287 286 286 286 285 285 285 284 283 283 283 283 282 282 282 282 282 281 281 281 281 281 281 281 281 280 280 280 279 279 279 279 280 279 279 279 279 278 279 278 279
286 286 285 284 284 284 283 284 283 283 282 282 282 281 281 281 281 281 281 280 280 280 280 280 280 280 280 279 279 279 278 278 278 279 278 278 278 278 278 278 278 278
285 285 284 284 284 283 283 282 282 281 281 280 280 281 280 281 280 280 280 280 279 279 279 279 279 279 279 279 278 278 278 278 278 278 277 278 278 278 277 277 277 277
284 284 283 283 283 283 282 281 280 280 280 280 280 280 280 280 279 279 279 279 279 278 278 278 278 278 278 278 278 277 277 277 277 277 276 276 277 277 277 277 276 276
284 283 282 282 282 281 280 280 280 280 280 280 280 280 279 279 279 279 278 278 278 278 277 277 277 277 277 277 276 276 276 276 276 276 275 275 275 276 276 276 275 275
282 282 281 281 280 280 280 279 279 279 279 279 279 279 279 279 278 278 278 277 277 277 276 276 276 276 276 276 275 275 275 275 275 275 274 274 274 274 275 275 274 274
281 281 280 280 279 279 279 279 279 279 279 279 278 278 278 278 277 277 277 277 276 275 275 275 275 275 275 275 274 274 274 274 274 274 273 273 273 273 273 274 274 273
281 280 279 279 278 278 278 278 278 278 278 277 277 277 278 277 277 276 276 275 275 275 274 274 274 274 274 274 274 273 273 273 273 273 273 272 272 272 272 273 273 273
279 279 278 278 277 278 277 278 278 278 278 277 277 277 276 277 276 276 275 274 274 274 274 273 273 274 273 273 273 273 272 272 273 273 272 272 272 272 272 272 272 272
278 278 277 277 277 277 277 277 277 277 277 276 276 276 276 275 275 275 274 273 273 273 273 273 273 273 273 273 273 273 273 272 272 272 272 272 272 272 273 272 272 272
277 277 276 276 276 277 276 276 276 276 276 276 275 275 274 274 273 273 273 273 273 273 273 273 273 273 272 272 272 272 272 272 272 272 272 272 272 272 272 272 272 273
276 276 276 276 276 276 276 276 275 275 275 274 275 274 273 273 273 272 273 272 272 272 272 272 272 272 272 272 272 272 272 272 272 272 272 272 272 273 273 272 272 272
276 276 276 276 276 276 275 275 275 275 274 274 273 272 272 272 272 271 272 272 272 271 272 272 272 272 272 272 272 272 272 272 271 271 272 272 272 273 273 273 273 273
276 276 276 276 275 275 274 274 274 273 273 273 272 271 271 271 271 271 270 270 271 271 271 272 272 272 272 272 271 271 272 272 272 273 273 273 273 273 273 273 273 273
276 275 275 275 274 274 274 273 273 272 272 271 270 270 270 270 270 270 270 270 270 271 271 272 271 272 273 274 274 273 273 273 273 273 273 273 273 273 273 274 274 274
275 274 274 273 273 273 273 272 271 271 270 270 269 269 269 269 269 269 270 270 271 271 271 271 271 271 273 275 275 277 275 274 273 273 274 274 274 274 273 274 274 275
274 274 273 273 273 272 271 270 270 269 268 268 268 268 268 269 269 269 270 270 270 270 270 270 270 272 274 275 276 276 276 275 274 274 274 274 274 274 274 274 274 274
274 273 272 271 271 270 269 268 267 267 267 267 266 267 268 268 268 269 269 270 270 269 269 270 270 272 273 274 275 276 277 276 275 274 274 274 274 274 273 273 273 273
273 271 271 270 269 268 267 266 266 266 266 267 267 267 267 267 268 268 268 268 269 269 268 269 269 271 273 274 276 276 277 277 275 274 274 274 273 273 273 273 273 273
271 270 269 268 267 267 266 265 265 265 266 266 266 267 267 267 267 267 267 267 267 267 267 267 268 271 273 275 275 276 277 277 274 274 273 273 273 274 274 273 273 273
269 269 268 267 266 265 265 265 265 265 265 266 266 267 267 267 267 267 266 266 266 266 266 266 267 271 273 274 275 276 277 274 273 273 273 273 273 273 274 274 274 274
269 267 266 266 265 265 264 264 265 265 265 266 265 266 266 266 266 266 266 266 265 265 265 265 266 269 272 274 275 276 275 273 273 272 272 272 273 273 274 274 274 274
268 267 266 265 265 264 264 265 265 265 265 266 265 265 265 266 266 265 265 266 265 265 265 265 266 269 272 274 275 275 275 273 272 272 272 272 272 273 274 274 275 277
266 266 266 265 264 264 264 264 265 265 265 265 265 265 264 265 265 265 265 265 265 265 267 267 267 269 272 273 274 275 274 273 272 272 271 272 272 272 274 274 274 275
266 265 265 264 264 264 264 264 264 264 264 264 264 264 264 265 265 265 264 264 265 266 266 267 267 268 270 273 274 275 275 273 273 271 271 271 272 272 272 272 273 272

ECMWFNIL_sfc_thetae_039.txt.gz
Theta_e
288 287 287 287 286 286 285 284 284 283 283 283 282 282 282 281 281 281 280 280 280 279 279 279 279 278 279 278 278 278 278 277 277 276 276 277 276 276 277 276 276 275
287 287 287 287 286 285 285 285 284 284 283 282 282 282 281 280 280 281 280 279 279 279 278 278 278 278 278 278 277 277 277 277 276 278 276 276 276 276 276 275 275 275
287 287 286 286 286 285 284 284 284 283 283 282 281 281 280 280 280 280 279 279 279 278 278 278 278 278 277 277 277 277 276 275 275 275 276 275 275 275 275 275 275 275
287 287 287 286 286 284 284 283 283 282 281 280 280 280 281 280 280 279 279 279 278 277 277 277 277 277 277 276 276 276 276 275 275 275 275 275 275 275 275 275 275 275
287 286 286 286 285 284 283 283 282 281 281 280 279 279 280 279 278 278 278 278 277 277 277 277 276 276 276 276 276 275 275 275 275 275 274 274 274 275 275 274 274 274
286 286 286 285 284 283 282 282 282 281 280 279 279 279 279 279 278 278 278 277 277 277 276 276 276 276 276 275 275 275 275 275 274 274 274 274 273 274 274 274 273 273
285 285 284 284 283 283 282 282 281 281 280 279 279 278 278 278 277 277 277 277 276 276 276 276 275 275 275 275 274 274 274 274 273 273 273 273 273 273 273 273 273 273
285 284 284 283 282 282 282 281 280 280 279 278 278 278 278 277 277 277 277 276 276 276 275 275 275 275 274 274 274 273 273 273 273 273 272 272 272 272 272 273 272 272
284 283 283 282 281 281 281 280 280 279 279 278 278 277 277 277 277 276 276 276 275 275 275 274 274 274 274 273 273 273 272 272 272 272 272 271 271 271 272 272 271 271
283 282 281 281 281 281 280 280 279 278 278 278 277 277 276 276 276 276 275 275 275 274 274 274 273 273 273 273 273 272 272 272 272 271 271 271 271 271 271 271 271 271
282 282 281 281 281 280 280 279 278 278 277 277 276 276 276 275 275 275 275 275 274 274 273 273 273 272 272 272 272 272 272 271 271 271 271 272 272 271 272 271 271 271
282 281 281 281 280 280 279 278 277 277 277 276 276 276 275 275 275 275 275 274 274 273 273 272 272 272 272 271 271 271 271 271 271 272 272 272 272 271 271 271 271 271
282 281 281 280 280 279 278 277 277 276 276 276 276 276 275 274 274 274 274 274 273 273 272 272 271 271 270 270 270 270 270 271 271 272 272 272 271 271 271 271 271 271
282 281 280 280 279 278 277 276 276 276 276 276 275 275 274 274 274 273 273 273 272 272 272 271 270 270 270 270 270 270 270 270 271 271 271 271 271 271 271 271 271 271
281 280 279 279 278 277 276 276 276 275 275 274 274 274 274 273 273 273 272 271 272 272 272 271 271 271 271 271 270 270 270 270 271 271 271 271 271 271 271 271 272 272
280 279 278 277 277 276 276 275 275 274 274 273 273 273 273 272 272 271 271 271 271 271 271 271 271 271 273 275 274 271 271 271 271 271 271 271 271 271 272 274 274 274
279 278 277 276 276 276 275 275 274 274 273 273 272 272 272 271 271 271 271 271 271 271 271 271 271 271 275 276 277 277 273 271 271 271 272 273 273 273 273 274 274 275
278 277 276 276 275 275 274 274 273 273 272 272 271 271 271 271 271 271 271 271 271 271 271 271 271 274 276 277 278 278 278 275 274 274 274 274 274 274 274 274 274 275
277 276 275 275 275 274 274 273 273 272 272 271 270 271 270 270 271 271 270 271 270 270 270 271 271 275 277 277 278 278 278 278 276 275 274 274 274 274 274 274 274 274
276 275 275 275 274 274 273 273 272 272 272 271 271 271 270 270 270 270 270 270 270 270 270 271 271 274 277 277 277 277 278 278 276 275 275 275 275 274 274 273 273 273
276 275 275 274 274 273 273 272 272 272 271 271 271 270 270 270 270 269 270 270 270 271 271 270 270 274 276 276 276 277 277 278 276 275 275 274 274 273 273 273 273 273
276 275 275 274 273 273 272 272 272 272 271 270 270 269 269 270 270 270 269 269 270 270 269 268 269 275 275 275 276 277 277 276 275 274 273 273 273 273 273 273 273 273
276 275 274 273 273 272 272 272 271 271 270 270 269 269 269 269 269 269 270 269 269 269 268 268 268 272 274 275 275 276 276 274 274 273 272 272 272 272 273 273 273 273
276 275 274 273 273 272 272 272 271 270 270 270 269 268 268 269 269 269 269 268 268 267 268 268 268 270 273 274 275 276 276 273 273 272 271 271 271 272 273 273 274 275
275 275 274 273 272 272 272 271 270 269 270 269 269 269 269 269 268 268 267 267 267 268 270 268 267 269 273 274 275 276 275 273 272 271 270 271 271 271 273 273 274 275
275 275 274 273 272 272 271 271 270 269 269 268 268 268 268 267 267 267 266 266 267 267 268 268 267 267 270 274 274 275 276 273 272 271 270 270 271 271 271 273 273 273